Time,TemperatureF,DewpointF,PressureIn,WindDirection,WindDirectionDegrees,WindSpeedMPH,WindSpeedGustMPH,Humidity,HourlyPrecipIn,Conditions,Clouds,dailyrainin,SoftwareType,DateUTC
2013-01-15 00:03:00,25.0,20.0,30.35,WSW,240,1.0,2.0,81,0.00,,,0.07,,2013-01-15 05:03:00,
2013-01-15 00:12:00,25.0,20.0,30.35,WSW,240,1.0,2.0,81,0.00,,,0.07,,2013-01-15 05:12:00,
2013-01-15 00:22:00,25.0,20.0,30.34,WSW,252,2.0,3.0,82,0.00,,,0.07,,2013-01-15 05:22:00,
2013-01-15 00:33:00,25.0,20.0,30.34,WSW,243,3.0,5.0,82,0.00,,,0.07,,2013-01-15 05:33:00,
2013-01-15 00:42:00,25.0,20.0,30.34,WSW,243,3.0,5.0,82,0.00,,,0.07,,2013-01-15 05:42:00,
2013-01-15 00:53:00,25.0,20.0,30.34,WSW,250,3.0,4.0,82,0.00,,,0.07,,2013-01-15 05:53:00,
2013-01-15 01:02:00,25.0,20.0,30.33,WSW,247,2.0,4.0,82,0.00,,,0.07,,2013-01-15 06:02:00,
2013-01-15 01:12:00,25.0,20.0,30.33,WSW,247,2.0,4.0,82,0.00,,,0.07,,2013-01-15 06:12:00,
2013-01-15 01:22:00,25.0,21.0,30.34,WSW,239,3.0,4.0,83,0.00,,,0.06,,2013-01-15 06:22:00,
2013-01-15 01:33:00,25.0,21.0,30.34,WSW,256,4.0,7.0,83,0.00,,,0.06,,2013-01-15 06:33:00,
2013-01-15 01:43:00,25.0,21.0,30.34,WSW,256,4.0,7.0,83,0.00,,,0.06,,2013-01-15 06:43:00,
2013-01-15 01:53:00,26.0,21.0,30.35,WSW,240,4.0,8.0,82,0.00,,,0.06,,2013-01-15 06:53:00,
2013-01-15 02:02:00,26.0,21.0,30.35,WSW,246,5.0,7.0,81,0.00,,,0.06,,2013-01-15 07:02:00,
2013-01-15 02:12:00,26.0,21.0,30.35,WSW,246,5.0,7.0,81,0.00,,,0.06,,2013-01-15 07:12:00,
2013-01-15 02:22:00,26.0,20.0,30.35,WSW,246,5.0,7.0,79,0.00,,,0.06,,2013-01-15 07:22:00,
2013-01-15 02:33:00,26.0,20.0,30.35,SW,219,5.0,7.0,79,0.00,,,0.02,,2013-01-15 07:33:00,
2013-01-15 02:42:00,26.0,20.0,30.35,SW,219,5.0,7.0,79,0.00,,,0.02,,2013-01-15 07:42:00,
2013-01-15 02:52:00,26.0,20.0,30.35,SW,233,5.0,8.0,79,0.00,,,0.02,,2013-01-15 07:52:00,
2013-01-15 03:02:00,26.0,21.0,30.36,SW,233,4.0,6.0,80,0.00,,,0.02,,2013-01-15 08:02:00,
2013-01-15 03:12:00,26.0,21.0,30.36,SW,233,4.0,6.0,80,0.00,,,0.02,,2013-01-15 08:12:00,
2013-01-15 03:22:00,26.0,21.0,30.35,WSW,238,4.0,5.0,81,0.00,,,0.01,,2013-01-15 08:22:00,
2013-01-15 03:33:00,26.0,21.0,30.35,West,259,4.0,7.0,81,0.00,,,0.01,,2013-01-15 08:33:00,
2013-01-15 03:43:00,26.0,21.0,30.35,West,259,4.0,7.0,81,0.00,,,0.01,,2013-01-15 08:43:00,
2013-01-15 03:53:00,26.0,21.0,30.35,West,259,4.0,7.0,81,0.00,,,0.01,,2013-01-15 08:53:00,
2013-01-15 04:02:00,26.0,21.0,30.35,West,259,4.0,7.0,81,0.00,,,0.01,,2013-01-15 09:02:00,
2013-01-15 04:12:00,26.0,21.0,30.35,West,259,4.0,7.0,81,0.00,,,0.01,,2013-01-15 09:12:00,
2013-01-15 19:23:00,27.0,20.0,30.29,West,276,1.0,2.0,76,0.00,,,0.00,,2013-01-16 00:23:00,
2013-01-15 19:33:00,27.0,21.0,30.29,West,262,1.0,2.0,77,0.00,,,0.00,,2013-01-16 00:33:00,
2013-01-15 19:43:00,27.0,21.0,30.29,West,262,1.0,2.0,77,0.00,,,0.00,,2013-01-16 00:43:00,
2013-01-15 19:53:00,27.0,21.0,30.27,SW,214,1.0,2.0,77,0.00,,,0.00,,2013-01-16 00:53:00,
2013-01-15 20:03:00,27.0,21.0,30.27,SW,228,2.0,3.0,78,0.00,,,0.00,,2013-01-16 01:03:00,
2013-01-15 20:12:00,27.0,21.0,30.27,SW,228,2.0,3.0,78,0.00,,,0.00,,2013-01-16 01:12:00,
2013-01-15 20:23:00,27.0,21.0,30.27,SW,224,1.0,2.0,78,0.00,,,0.00,,2013-01-16 01:23:00,
2013-01-15 20:33:00,27.0,21.0,30.27,SW,226,1.0,2.0,78,0.00,,,0.00,,2013-01-16 01:33:00,
2013-01-15 20:43:00,27.0,21.0,30.27,SW,226,1.0,2.0,78,0.00,,,0.00,,2013-01-16 01:43:00,
2013-01-15 20:53:00,27.0,21.0,30.27,SW,219,1.0,3.0,79,0.00,,,0.00,,2013-01-16 01:53:00,
2013-01-15 21:03:00,27.0,21.0,30.26,SW,233,1.0,2.0,79,0.00,,,0.00,,2013-01-16 02:03:00,
2013-01-15 21:12:00,27.0,21.0,30.26,SW,233,1.0,2.0,79,0.00,,,0.00,,2013-01-16 02:12:00,
2013-01-15 21:23:00,27.0,21.0,30.25,SSW,193,2.0,3.0,78,0.00,,,0.00,,2013-01-16 02:23:00,
2013-01-15 21:33:00,27.0,21.0,30.24,South,177,0.0,1.0,79,0.00,,,0.00,,2013-01-16 02:33:00,
2013-01-15 21:43:00,27.0,21.0,30.24,South,177,0.0,1.0,79,0.00,,,0.00,,2013-01-16 02:43:00,
2013-01-15 21:53:00,27.0,22.0,30.24,SW,231,1.0,1.0,80,0.00,,,0.00,,2013-01-16 02:53:00,
2013-01-15 22:03:00,27.0,22.0,30.24,SSW,195,0.0,2.0,81,0.00,,,0.00,,2013-01-16 03:03:00,
2013-01-15 22:12:00,27.0,22.0,30.24,SSW,195,0.0,2.0,81,0.00,,,0.00,,2013-01-16 03:12:00,
2013-01-15 22:22:00,27.0,22.0,30.24,SSW,195,0.0,2.0,81,0.00,,,0.00,,2013-01-16 03:22:00,
2013-01-15 22:33:00,27.0,22.0,30.24,SSW,195,0.0,2.0,81,0.00,,,0.00,,2013-01-16 03:33:00,
2013-01-15 22:43:00,27.0,22.0,30.24,SSW,195,0.0,2.0,81,0.00,,,0.00,,2013-01-16 03:43:00,
2013-01-15 22:53:00,27.0,22.0,30.22,SE,146,0.0,0.0,82,0.00,,,0.00,,2013-01-16 03:53:00,
2013-01-15 23:02:00,27.0,22.0,30.20,ESE,110,1.0,2.0,82,0.00,,,0.00,,2013-01-16 04:02:00,
2013-01-15 23:12:00,27.0,22.0,30.20,ESE,110,1.0,2.0,82,0.00,,,0.00,,2013-01-16 04:12:00,
2013-01-15 23:22:00,27.0,22.0,30.19,ESE,113,1.0,2.0,82,0.00,,,0.00,,2013-01-16 04:22:00,
2013-01-15 23:33:00,27.0,22.0,30.19,SE,129,0.0,0.0,82,0.00,,,0.00,,2013-01-16 04:33:00,
2013-01-15 23:42:00,27.0,22.0,30.19,SE,129,0.0,0.0,82,0.00,,,0.00,,2013-01-16 04:42:00,
2013-01-15 23:53:00,27.0,23.0,30.19,SE,135,0.0,0.0,83,0.00,,,0.00,,2013-01-16 04:53:00,